Simultaneous Nadir Overpasses (SNOs) Predictions

Prediction of SNOs between NPP and PACE Satellite Orbit:

Table of predicted SNOs for the next 14.0 days since TLE Epoch: 8/9/2025
Index Date (NPP) Time (NPP) Lat,Lon (NPP) SZA (NPP ) Date (PACE) Time (PACE) Lat,Lon (PACE) SZA (PACE ) Distance(km) Time Diff (sec)
1 08/10/2025 18:15:57 -79.96, 47.91 113.00 08/10/2025 18:16:03 -79.96, 47.90 113.01 0.43 6
2 08/12/2025 22:42:26 -80.06, -19.74 112.17 08/12/2025 22:43:09 -80.05, -19.61 112.21 2.81 43
3 08/12/2025 23:33:06 79.90, 149.23 67.53 08/12/2025 23:32:16 79.89, 149.35 67.54 2.45 50
4 08/15/2025 03:59:32 79.92, 82.44 68.23 08/15/2025 03:59:20 79.93, 82.30 68.25 2.67 12
5 08/17/2025 08:26:00 80.00, 15.02 69.06 08/17/2025 08:26:25 80.01, 14.89 69.07 2.69 25
6 08/17/2025 09:16:39 -79.84,-176.05 111.24 08/17/2025 09:15:30 -79.84,-176.13 111.20 1.54 69
7 08/19/2025 12:52:29 80.11, -52.74 69.96 08/19/2025 12:53:30 80.10, -52.63 69.91 2.36 61
8 08/19/2025 13:43:06 -79.89, 116.85 110.46 08/19/2025 13:42:34 -79.90, 116.70 110.42 2.97 32



Historial Predications of SNOs between NPP and PACE
